Flag for India Weather past 2 weeks in New Okhla Industrial Development Authority, Uttar Pradesh, India

Now
86 °F

Passing clouds.


Feels Like: 97 °F
Forecast: 81 / 100 °F
Wind: No wind

Location: New Delhi Palam Airport

Current Time: Aug 29, 2014 at 10:45:26 PM

Latest Report: Aug 29, 2014 at 10:00 PM


Visibility: 2 mi

Pressure: 29.68 "Hg

Humidity: 75%

Dew point: 77 °F

Location of New Okhla Industrial Development AuthorityLocation

Historic Weather in New Okhla Industrial Development Authority — Graph

°F

New Okhla Industrial Development Authority temperature yesterday

Maximum temperature yesterday: 97 °F (at 1:00 PM)
Minimum temperature yesterday: 77 °F (at 3:00 PM)
Average temperature yesterday: 85 °F

Past Weeks' High & Low Weather Summary

 TemperatureHumidityPressure
High104 °F (Aug 22, 3:00 PM)84% (Aug 28, 3:30 PM)29.80 "Hg (Aug 28, 3:30 PM)
Low77 °F (Aug 28, 3:00 PM)28% (Aug 25, 4:00 PM)29.50 "Hg (Aug 14, 9:30 PM)
Average90 °F55%29.66 "Hg
* Reported Aug 14 9:30 PM — Aug 29 9:30 PM, New Okhla Industrial Development Authority, Weather by CustomWeather, © 2014

Note: Actual official high and low records may vary slightly from our data, if they occured in-between our weather recording intervals... More about our weather records

Advertising

New Okhla Industrial Development Authority weather history for previous 24 hours

 ConditionsComfort  
Time TempWeatherWind HumidityBarometerVisibility
9:30 PM
Aug 29
86 °FPassing clouds.No wind75%29.68 "Hg2 mi
9:00 PM88 °FPassing clouds.3 mph66%29.68 "Hg2 mi
8:30 PM88 °FPassing clouds.6 mph66%29.68 "Hg2 mi
8:00 PM88 °FPassing clouds.5 mph66%29.65 "Hg2 mi
7:30 PM90 °FPassing clouds.5 mph63%29.65 "Hg2 mi
7:00 PM90 °FScattered clouds.5 mph63%29.62 "Hg2 mi
6:30 PM90 °FScattered clouds.7 mph59%29.62 "Hg2 mi
6:00 PM90 °FScattered clouds.6 mph59%29.62 "Hg2 mi
5:30 PM91 °FScattered clouds.7 mph56%29.62 "Hg2 mi
5:00 PM91 °FScattered clouds.9 mph59%29.62 "Hg2 mi
4:30 PM93 °FScattered clouds.5 mph53%29.62 "Hg2 mi
4:00 PM93 °FScattered clouds.6 mph56%29.62 "Hg2 mi
3:30 PM91 °FScattered clouds.5 mph59%29.62 "HgN/A
2:30 PM90 °FScattered clouds.5 mph63%29.65 "Hg2 mi
1:30 PM84 °FBroken clouds.6 mph66%29.71 "Hg2 mi
1:00 PM82 °FBroken clouds.5 mph70%29.71 "Hg2 mi
12:30 PM81 °FBroken clouds.No wind74%29.74 "Hg2 mi
12:00 PM81 °FBroken clouds.No wind74%29.74 "Hg2 mi
10:30 AM90 °FBroken clouds.6 mph67%29.74 "Hg1 mi
10:00 AM88 °FBroken clouds.7 mph70%29.74 "Hg1 mi
9:30 AM88 °FBroken clouds.7 mph70%29.74 "Hg1 mi
9:00 AM88 °FBroken clouds.8 mph70%29.74 "Hg1 mi
8:30 AM86 °FFog.7 mph79%29.74 "Hg1 mi
8:00 AM84 °FFog.7 mph84%29.74 "Hg1 mi
7:30 AM84 °FFog.6 mph84%29.74 "Hg1 mi
7:00 AM82 °FFog.7 mph84%29.71 "Hg1 mi
6:30 AM82 °FFog.6 mph84%29.71 "Hg1 mi
6:00 AM82 °FFog.No wind84%29.71 "Hg1 mi
5:30 AM82 °FFog.No wind84%29.71 "Hg2 mi
5:00 AM81 °FFog.No wind84%29.68 "Hg2 mi
4:30 AM82 °FFog.No wind79%29.68 "Hg2 mi
4:00 AM82 °FFog.No wind79%29.68 "Hg2 mi
3:30 AM82 °FThunderstorms. Partly cloudy.3 mph70%29.68 "Hg2 mi
3:00 AM82 °FThunderstorms. Partly cloudy.5 mph70%29.68 "Hg2 mi
2:30 AM82 °FThunderstorms. Partly cloudy.5 mph70%29.68 "Hg2 mi
2:00 AM82 °FThunderstorms. Partly cloudy.5 mph70%29.71 "Hg2 mi
1:30 AM82 °FThunderstorms. Partly cloudy.6 mph70%29.71 "Hg2 mi
1:00 AM82 °FThunderstorms. Partly cloudy.8 mph70%29.71 "Hg2 mi
12:30 AM81 °FThunderstorms. Partly cloudy.No wind79%29.71 "Hg2 mi
11:30 PM
Aug 28
81 °FFog.No wind79%29.71 "Hg2 mi
11:00 PM81 °FFog.No wind79%29.71 "Hg2 mi
10:30 PM81 °FFog.No wind79%29.71 "Hg2 mi
10:00 PM82 °FFog.No wind79%29.71 "Hg2 mi
Weather by CustomWeather, © 2014

See weather overviewHow to use our weather pages